GW5275 Weather Reports


Display with metric or nautical units.
time (UTC)temp
F
wind
direction
speed
MPH
gust
MPH
rain 1hr
in
rain 24hr
in
rain mn
in
humidity
%
barometer
mb
20260509173630 63 287 1.0 6.0 0.00 0.00 0.00 65 1011.4
20260509173126 63 326 3.0 4.0 0.00 0.00 0.00 66 1011.5
20260509172623 63 262 3.0 4.0 0.00 0.00 0.00 67 1011.5
20260509172119 63 301 4.0 8.0 0.00 0.00 0.00 67 1011.5
20260509171615 62 268 1.0 3.0 0.00 0.00 0.00 67 1011.7
20260509171111 62 213 1.0 1.0 0.00 0.00 0.00 66 1011.7
20260509170607 62 135 1.0 2.0 0.00 0.00 0.00 66 1012.1
20260509170104 62 300 1.0 6.0 0.00 0.00 0.00 66 1012.2
20260509165602 62 267 3.0 4.0 0.00 0.00 0.00 68 1012.0
20260509165058 62 209 4.0 7.0 0.00 0.00 0.00 69 1012.0
20260509164554 61 311 3.0 3.0 0.00 0.00 0.00 69 1012.0
20260509164050 61 273 4.0 7.0 0.00 0.00 0.00 68 1011.8
20260509163548 61 248 2.0 4.0 0.00 0.00 0.00 68 1011.7
20260509163043 61 336 4.0 7.0 0.00 0.00 0.00 68 1011.7
20260509162540 61 241 4.0 6.0 0.00 0.00 0.00 68 1011.6
20260509162036 61 252 4.0 8.0 0.00 0.00 0.00 67 1011.6
20260509161528 61 246 6.0 10.0 0.00 0.00 0.00 69 1011.3
20260509161027 61 185 6.0 8.0 0.00 0.00 0.00 68 1011.6
20260509160523 61 282 4.0 6.0 0.00 0.00 0.00 68 1011.8
20260509160019 61 242 5.0 7.0 0.00 0.00 0.00 68 1011.6
20260509155515 61 283 5.0 8.0 0.00 0.00 0.00 68 1011.9
20260509155011 61 284 2.0 6.0 0.00 0.00 0.00 67 1012.0
20260509154508 61 301 0.0 4.0 0.00 0.00 0.00 67 1012.1
20260509154006 61 239 4.0 6.0 0.00 0.00 0.00 66 1011.6
20260509153502 62 334 2.0 8.0 0.00 0.00 0.00 67 1011.8
20260509152959 62 308 0.0 3.0 0.00 0.00 0.00 66 1012.0
20260509152455 62 326 3.0 4.0 0.00 0.00 0.00 65 1012.0
20260509151952 61 259 4.0 7.0 0.00 0.00 0.00 66 1011.9
20260509151448 60 288 0.0 6.0 0.00 0.00 0.00 68 1011.9
20260509150947 60 264 4.0 6.0 0.00 0.00 0.00 67 1012.0
20260509150443 60 324 5.0 7.0 0.00 0.00 0.00 68 1011.9
20260509145942 60 317 5.0 7.0 0.00 0.00 0.00 70 1011.9
20260509145437 60 256 5.0 7.0 0.00 0.00 0.00 70 1011.8
20260509144932 60 258 2.0 4.0 0.00 0.00 0.00 69 1011.9
20260509144430 60 268 3.0 4.0 0.00 0.00 0.00 69 1012.0
20260509143926 59 278 4.0 4.0 0.00 0.00 0.00 69 1012.3
20260509143424 59 271 4.0 7.0 0.00 0.00 0.00 71 1012.2
20260509142920 59 222 2.0 4.0 0.00 0.00 0.00 70 1012.2
20260509142417 58 271 2.0 3.0 0.00 0.00 0.00 71 1012.3
20260509141912 58 300 1.0 4.0 0.00 0.00 0.00 72 1012.2
20260509141409 58 21 2.0 3.0 0.00 0.00 0.00 73 1012.3
20260509140906 58 224 0.0 0.0 0.00 0.00 0.00 72 1012.3
20260509140402 57 325 1.0 2.0 0.00 0.00 0.00 74 1012.4
20260509135901 57 266 2.0 3.0 0.00 0.00 0.00 74 1012.1
20260509135358 57 241 4.0 6.0 0.00 0.00 0.00 74 1011.8
20260509134855 57 264 4.0 6.0 0.00 0.00 0.00 75 1011.7
20260509134352 56 322 2.0 6.0 0.00 0.00 0.00 75 1011.5
20260509133849 56 277 3.0 3.0 0.00 0.00 0.00 74 1011.8
20260509133346 56 317 1.0 4.0 0.00 0.00 0.00 74 1011.7
20260509132845 56 262 3.0 3.0 0.00 0.00 0.00 74 1011.7
20260509132343 56 283 3.0 3.0 0.00 0.00 0.00 74 1011.7
20260509131839 56 269 4.0 6.0 0.00 0.00 0.00 74 1011.6
20260509131336 57 282 3.0 3.0 0.00 0.00 0.00 73 1011.8
20260509130833 57 291 2.0 3.0 0.00 0.00 0.00 73 1011.7
20260509130328 56 255 2.0 3.0 0.00 0.00 0.00 73 1011.9
20260509125825 56 322 2.0 3.0 0.00 0.00 0.00 74 1011.8
20260509125321 57 317 1.0 1.0 0.00 0.00 0.00 72 1012.0
20260509124818 56 266 1.0 1.0 0.00 0.00 0.00 74 1011.9
20260509124314 55 180 0.0 1.0 0.00 0.00 0.00 76 1012.0
20260509123813 55 264 3.0 6.0 0.00 0.00 0.00 77 1011.6
20260509123310 55 249 4.0 6.0 0.00 0.00 0.00 77 1011.7
20260509122805 55 229 3.0 3.0 0.00 0.00 0.00 78 1011.7
20260509122305 55 289 2.0 2.0 0.00 0.00 0.00 78 1011.9
20260509121759 55 245 2.0 3.0 0.00 0.00 0.00 79 1011.9
20260509121256 54 243 2.0 3.0 0.00 0.00 0.00 80 1011.9
20260509120755 54 235 0.0 2.0 0.00 0.00 0.00 81 1012.1
20260509120252 54 241 2.0 2.0 0.00 0.00 0.00 81 1012.2
20260509115750 54 234 1.0 3.0 0.00 0.00 0.00 81 1012.1
20260509115247 54 261 2.0 3.0 0.00 0.00 0.00 78 1012.1
20260509114745 55 237 4.0 4.0 0.00 0.00 0.00 76 1012.1
20260509114244 55 212 1.0 2.0 0.00 0.00 0.00 74 1012.0
20260509113742 55 253 1.0 1.0 0.00 0.00 0.00 74 1011.9
20260509113239 55 221 2.0 2.0 0.00 0.00 0.00 74 1011.7
20260509112735 55 138 0.0 0.0 0.00 0.00 0.00 73 1011.6
20260509112233 54 283 0.0 0.0 0.00 0.00 0.00 74 1011.6
20260509111730 54 233 1.0 3.0 0.00 0.00 0.00 75 1011.7
20260509111226 54 245 3.0 4.0 0.00 0.00 0.00 75 1011.7
20260509110724 53 235 4.0 4.0 0.00 0.00 0.00 75 1011.6
20260509110220 53 227 3.0 6.0 0.00 0.00 0.00 74 1011.5
20260509105719 54 236 4.0 4.0 0.00 0.00 0.00 73 1011.6
20260509105216 54 244 6.0 6.0 0.00 0.00 0.00 71 1011.7
20260509104713 55 265 4.0 7.0 0.00 0.00 0.00 68 1011.4
20260509104210 56 217 4.0 4.0 0.00 0.00 0.00 64 1011.4
20260509103708 56 170 0.0 1.0 0.00 0.00 0.00 61 1011.3
20260509103205 56 144 0.0 0.0 0.00 0.00 0.00 62 1011.2
20260509102703 56 224 1.0 1.0 0.00 0.00 0.00 62 1011.3
20260509102159 56 166 0.0 1.0 0.00 0.00 0.00 61 1011.1
20260509101656 55 29 0.0 0.0 0.00 0.00 0.00 67 1011.2
20260509101152 55 8 0.0 0.0 0.00 0.00 0.00 64 1011.1
20260509100650 55 335 0.0 0.0 0.00 0.00 0.00 65 1011.2
20260509100147 55 335 0.0 0.0 0.00 0.00 0.00 65 1011.2
20260509095643 55 267 0.0 0.0 0.00 0.00 0.00 68 1011.1
20260509095141 55 245 0.0 1.0 0.00 0.00 0.00 66 1010.7
20260509094637 55 241 1.0 2.0 0.00 0.00 0.00 68 1011.1
20260509094134 55 248 0.0 0.0 0.00 0.00 0.00 68 1010.7
20260509093633 55 225 0.0 0.0 0.00 0.00 0.00 65 1011.0
20260509093129 55 223 0.0 0.0 0.00 0.00 0.00 64 1011.0
20260509092627 55 226 0.0 0.0 0.00 0.00 0.00 64 1010.9
20260509092126 55 226 0.0 0.0 0.00 0.00 0.00 64 1011.0
20260509091624 56 226 1.0 1.0 0.00 0.00 0.00 65 1011.0
20260509091119 57 211 1.0 2.0 0.00 0.00 0.00 60 1011.0
20260509090617 57 101 0.0 1.0 0.00 0.00 0.00 58 1011.0
20260509090114 57 110 1.0 3.0 0.00 0.00 0.00 57 1011.1
20260509085612 57 63 2.0 3.0 0.00 0.00 0.00 58 1011.1
20260509085107 57 66 4.0 6.0 0.00 0.00 0.00 58 1011.1
20260509084605 57 92 2.0 6.0 0.00 0.00 0.00 58 1011.1
20260509084057 57 92 2.0 4.0 0.00 0.00 0.00 59 1011.1
20260509083554 57 78 4.0 4.0 0.00 0.00 0.00 58 1011.0
20260509083050 57 96 2.0 4.0 0.00 0.00 0.00 59 1011.1
20260509082548 57 74 2.0 4.0 0.00 0.00 0.00 59 1011.2
20260509082045 57 95 3.0 4.0 0.00 0.00 0.00 59 1011.3
20260509081542 57 85 2.0 6.0 0.00 0.00 0.00 60 1011.1
20260509081038 57 63 1.0 3.0 0.00 0.00 0.00 62 1011.3
20260509080537 57 32 3.0 4.0 0.00 0.00 0.00 60 1011.2
20260509080035 57 55 3.0 6.0 0.00 0.00 0.00 59 1011.2
20260509075531 57 49 2.0 2.0 0.00 0.00 0.00 61 1011.2
20260509075030 58 31 2.0 3.0 0.00 0.00 0.00 59 1011.1
20260509074526 58 28 2.0 3.0 0.00 0.00 0.00 57 1011.3
20260509074023 58 76 3.0 4.0 0.00 0.00 0.00 56 1011.2
20260509073519 58 87 1.0 4.0 0.00 0.00 0.00 57 1011.3
20260509073016 58 83 3.0 3.0 0.00 0.00 0.00 57 1011.3
20260509072513 58 103 2.0 4.0 0.00 0.00 0.00 56 1011.3
20260509072009 58 127 7.0 10.0 0.00 0.00 0.00 56 1011.2
20260509071506 58 30 2.0 4.0 0.00 0.00 0.00 57 1011.2
20260509071004 58 64 3.0 7.0 0.00 0.00 0.00 57 1011.2
20260509070501 58 81 4.0 6.0 0.00 0.00 0.00 57 1011.4
20260509065956 58 101 2.0 3.0 0.00 0.00 0.00 57 1011.4
20260509065452 58 53 4.0 7.0 0.00 0.00 0.00 56 1011.4
20260509064948 58 63 3.0 7.0 0.00 0.00 0.00 58 1011.6
20260509064446 58 117 3.0 8.0 0.00 0.00 0.00 58 1011.4
20260509063944 57 49 3.0 6.0 0.00 0.00 0.00 59 1011.5
20260509063444 57 101 2.0 6.0 0.00 0.00 0.00 59 1011.5
20260509062941 57 96 2.0 6.0 0.00 0.00 0.00 60 1011.5
20260509062439 57 88 2.0 4.0 0.00 0.00 0.00 60 1011.8
20260509061936 57 134 2.0 4.0 0.00 0.00 0.00 60 1011.6
20260509061434 57 86 1.0 3.0 0.00 0.00 0.00 61 1011.7
20260509060930 57 122 1.0 3.0 0.00 0.00 0.00 61 1011.9
20260509060428 57 90 2.0 3.0 0.00 0.00 0.00 60 1011.6
20260509055923 57 123 2.0 4.0 0.00 0.00 0.00 60 1011.8
20260509055419 57 64 1.0 4.0 0.00 0.00 0.00 59 1011.9
20260509054915 57 43 2.0 2.0 0.00 0.00 0.00 60 1011.9
20260509054412 57 68 0.0 3.0 0.00 0.00 0.00 60 1011.8
20260509053911 57 111 1.0 2.0 0.00 0.00 0.00 60 1011.8
20260509053409 57 94 1.0 3.0 0.00 0.00 0.00 59 1011.9
20260509052906 56 75 2.0 3.0 0.00 0.00 0.00 60 1012.0
20260509052403 56 73 1.0 2.0 0.00 0.00 0.00 61 1011.9
20260509051901 56 15 1.0 3.0 0.00 0.00 0.00 61 1011.9
20260509051359 55 19 1.0 3.0 0.00 0.00 0.00 61 1012.0
20260509050855 55 16 1.0 1.0 0.00 0.00 0.00 62 1011.9
20260509050352 55 25 1.0 1.0 0.00 0.00 0.00 63 1011.8
20260509045848 54 45 0.0 1.0 0.00 0.00 0.00 64 1012.0
20260509045346 54 28 2.0 2.0 0.00 0.00 0.00 66 1011.8
20260509044843 53 12 1.0 2.0 0.00 0.00 0.00 68 1011.9
20260509044340 52 12 2.0 3.0 0.00 0.00 0.00 70 1011.7
20260509043836 52 25 1.0 2.0 0.00 0.00 0.00 71 1011.9
20260509043332 53 6 1.0 2.0 0.00 0.00 0.00 67 1012.0
20260509042828 54 29 0.0 0.0 0.00 0.00 0.00 63 1012.0
20260509042325 53 29 0.0 0.0 0.00 0.00 0.00 66 1012.1
20260509041822 53 3 0.0 0.0 0.00 0.00 0.00 68 1012.0
20260509041319 53 193 0.0 1.0 0.00 0.00 0.00 67 1012.2
20260509040817 53 185 2.0 3.0 0.00 0.00 0.00 67 1012.3
20260509040314 54 332 0.0 0.0 0.00 0.00 0.00 66 1012.4
20260509035811 54 6 0.0 1.0 0.00 0.00 0.00 65 1011.9
20260509035309 54 26 1.0 1.0 0.00 0.00 0.00 63 1012.0
20260509034804 55 8 0.0 1.0 0.00 0.00 0.00 62 1012.2
20260509034303 56 53 0.0 1.0 0.00 0.00 0.00 59 1012.3
20260509033759 55 49 0.0 0.0 0.00 0.00 0.00 61 1012.2
20260509033256 56 25 0.0 1.0 0.00 0.00 0.00 59 1012.2
20260509032753 56 12 1.0 2.0 0.00 0.00 0.00 59 1012.1
20260509032250 56 12 0.0 3.0 0.00 0.00 0.00 59 1012.3
20260509031748 56 32 2.0 2.0 0.00 0.00 0.00 59 1012.2
20260509031245 56 18 2.0 2.0 0.00 0.00 0.00 60 1012.0
20260509030743 56 35 1.0 3.0 0.00 0.00 0.00 60 1012.1
20260509030240 56 35 2.0 3.0 0.00 0.00 0.00 60 1012.0
20260509025737 56 13 2.0 3.0 0.00 0.00 0.00 59 1012.2
20260509025232 56 18 0.0 2.0 0.00 0.00 0.00 58 1012.4
20260509024728 57 30 1.0 2.0 0.00 0.00 0.00 56 1012.6
20260509024224 57 17 1.0 2.0 0.00 0.00 0.00 57 1012.4
20260509023722 57 27 0.0 2.0 0.00 0.00 0.00 57 1012.5
20260509023219 56 354 1.0 2.0 0.00 0.00 0.00 58 1012.5
20260509022714 57 12 0.0 1.0 0.00 0.00 0.00 58 1012.6
20260509022213 58 320 0.0 0.0 0.00 0.00 0.00 58 1012.5
20260509021709 58 327 2.0 2.0 0.00 0.00 0.00 55 1012.6
20260509021207 58 10 1.0 2.0 0.00 0.00 0.00 54 1012.5
20260509020705 57 333 1.0 2.0 0.00 0.00 0.00 57 1012.5
20260509020201 58 1 0.0 0.0 0.00 0.00 0.00 56 1012.7
20260509015700 59 337 1.0 1.0 0.00 0.00 0.00 55 1012.5
20260509015158 59 334 0.0 1.0 0.00 0.00 0.00 54 1012.5
20260509014654 59 355 1.0 2.0 0.00 0.00 0.00 55 1012.5
20260509014150 58 348 1.0 2.0 0.00 0.00 0.00 55 1012.3
20260509013647 58 338 2.0 2.0 0.00 0.00 0.00 57 1012.6
20260509013143 56 348 1.0 2.0 0.00 0.00 0.00 59 1012.4
20260509012640 57 355 0.0 0.0 0.00 0.00 0.00 58 1012.6
20260509012137 58 342 0.0 0.0 0.00 0.00 0.00 58 1012.5
20260509011635 58 312 0.0 1.0 0.00 0.00 0.00 58 1012.5
20260509011132 58 359 0.0 1.0 0.00 0.00 0.00 59 1012.5
20260509010629 59 359 0.0 0.0 0.00 0.00 0.00 56 1012.4
20260509010125 59 359 0.0 1.0 0.00 0.00 0.00 54 1012.3
20260509005623 61 356 0.0 0.0 0.00 0.00 0.00 54 1012.2
20260509005119 61 356 0.0 1.0 0.00 0.00 0.00 50 1012.4
20260509004615 62 355 1.0 1.0 0.00 0.00 0.00 51 1012.4
20260509004112 63 327 0.0 1.0 0.00 0.00 0.00 49 1012.4
20260509003611 63 319 1.0 1.0 0.00 0.00 0.00 47 1012.6
20260509003108 63 329 1.0 1.0 0.00 0.00 0.00 48 1012.3
20260509002605 63 319 0.0 0.0 0.00 0.00 0.00 50 1012.6
20260509002103 63 349 1.0 1.0 0.00 0.00 0.00 48 1012.4
20260509001600 64 17 1.0 3.0 0.00 0.00 0.00 49 1012.3
20260509001055 63 17 2.0 3.0 0.00 0.00 0.00 49 1012.2
20260509000554 64 342 0.0 0.0 0.00 0.00 0.00 51 1012.2
20260509000050 65 327 0.0 0.0 0.00 0.00 0.00 53 1012.2
20260508235548 65 312 0.0 1.0 0.00 0.00 0.00 43 1012.2
20260508235044 66 320 0.0 0.0 0.00 0.00 0.00 45 1012.1
20260508234541 66 319 0.0 1.0 0.00 0.00 0.00 44 1012.0
20260508234038 66 5 1.0 1.0 0.00 0.00 0.00 44 1012.2
20260508233537 66 323 1.0 1.0 0.00 0.00 0.00 44 1012.0
20260508233034 67 337 1.0 2.0 0.00 0.00 0.00 43 1012.0
20260508232531 67 290 0.0 1.0 0.00 0.00 0.00 41 1011.8
20260508232028 67 232 1.0 2.0 0.00 0.00 0.00 39 1012.0
20260508231526 66 250 3.0 3.0 0.00 0.00 0.00 41 1012.1
20260508231023 66 218 4.0 6.0 0.00 0.00 0.00 40 1012.1
20260508230520 66 238 5.0 8.0 0.00 0.00 0.00 40 1011.8
20260508230016 67 248 5.0 6.0 0.00 0.00 0.00 40 1011.8
20260508225513 67 220 2.0 4.0 0.00 0.00 0.00 43 1011.9
20260508225010 67 239 6.0 7.0 0.00 0.00 0.00 39 1011.9
20260508224508 68 234 4.0 4.0 0.00 0.00 0.00 39 1011.9
20260508224005 69 214 4.0 4.0 0.00 0.00 0.00 37 1012.0
20260508223503 67 192 3.0 4.0 0.00 0.00 0.00 39 1012.1
20260508223000 68 183 4.0 8.0 0.00 0.00 0.00 38 1012.0
20260508222457 68 226 1.0 3.0 0.00 0.00 0.00 39 1011.9
20260508221953 68 210 2.0 4.0 0.00 0.00 0.00 38 1012.0
20260508221450 68 173 4.0 7.0 0.00 0.00 0.00 37 1011.9
20260508220946 69 237 6.0 8.0 0.00 0.00 0.00 36 1011.8
20260508220443 70 262 5.0 8.0 0.00 0.00 0.00 37 1012.1
20260508215939 69 140 2.0 6.0 0.00 0.00 0.00 36 1011.7
20260508215436 68 207 3.0 8.0 0.00 0.00 0.00 37 1011.9
20260508214932 69 231 5.0 9.0 0.00 0.00 0.00 36 1011.9
20260508214431 69 139 5.0 9.0 0.00 0.00 0.00 38 1012.0
20260508213926 68 178 3.0 6.0 0.00 0.00 0.00 36 1012.2
20260508213424 68 236 6.0 8.0 0.00 0.00 0.00 37 1012.1
20260508212919 68 198 1.0 8.0 0.00 0.00 0.00 38 1012.2
20260508212416 68 210 5.0 6.0 0.00 0.00 0.00 37 1012.1
20260508211912 68 233 6.0 9.0 0.00 0.00 0.00 38 1012.3
20260508211407 68 197 4.0 4.0 0.00 0.00 0.00 37 1012.2
20260508210905 68 242 5.0 8.0 0.00 0.00 0.00 36 1012.3
20260508210401 68 231 2.0 7.0 0.00 0.00 0.00 35 1012.0
20260508205858 68 214 7.0 9.0 0.00 0.00 0.00 36 1012.0
20260508205355 68 191 4.0 8.0 0.00 0.00 0.00 35 1012.2
20260508204851 68 232 6.0 9.0 0.00 0.00 0.00 35 1012.3
20260508204348 68 193 4.0 7.0 0.00 0.00 0.00 36 1012.3
20260508203844 68 193 7.0 13.0 0.00 0.00 0.00 34 1012.3
20260508203340 68 215 10.0 13.0 0.00 0.00 0.00 34 1012.3
20260508202836 68 169 8.0 14.0 0.00 0.00 0.00 35 1012.3
20260508202334 69 155 5.0 10.0 0.00 0.00 0.00 35 1012.3
20260508201831 69 150 6.0 10.0 0.00 0.00 0.00 33 1012.4
20260508201328 69 165 4.0 10.0 0.00 0.00 0.00 34 1012.6
20260508200824 70 177 4.0 14.0 0.00 0.00 0.00 34 1012.2
20260508200321 70 245 6.0 19.0 0.00 0.00 0.00 33 1012.2
20260508195817 69 132 6.0 10.0 0.00 0.00 0.00 33 1012.3
20260508195314 68 140 5.0 14.0 0.00 0.00 0.00 33 1012.3
20260508194810 69 147 7.0 9.0 0.00 0.00 0.00 33 1012.5
20260508194307 68 143 9.0 13.0 0.00 0.00 0.00 33 1012.6
20260508193804 68 167 9.0 14.0 0.00 0.00 0.00 33 1012.5
20260508193301 71 112 8.0 11.0 0.00 0.00 0.00 33 1012.6
20260508192757 69 159 7.0 11.0 0.00 0.00 0.00 33 1012.8
20260508192254 71 145 7.0 9.0 0.00 0.00 0.00 33 1012.7
20260508191751 68 166 8.0 16.0 0.00 0.00 0.00 32 1012.9
20260508191248 69 131 3.0 6.0 0.00 0.00 0.00 33 1013.1
20260508190746 69 117 2.0 3.0 0.00 0.00 0.00 33 1013.1
20260508190241 67 125 1.0 7.0 0.00 0.00 0.00 34 1013.3
20260508185738 67 111 5.0 7.0 0.00 0.00 0.00 36 1013.3
20260508185236 67 124 4.0 13.0 0.00 0.00 0.00 35 1013.5
20260508184733 68 111 10.0 15.0 0.00 0.00 0.00 34 1013.5
20260508184230 67 121 3.0 8.0 0.00 0.00 0.00 34 1013.6
20260508183726 67 117 9.0 14.0 0.00 0.00 0.00 33 1013.6
20260508183223 69 136 5.0 10.0 0.00 0.00 0.00 35 1013.4
20260508182719 67 183 4.0 14.0 0.00 0.00 0.00 34 1013.6
20260508182216 69 109 6.0 9.0 0.00 0.00 0.00 35 1013.5
20260508181712 68 95 8.0 11.0 0.00 0.00 0.00 33 1013.6
20260508181209 69 222 5.0 15.0 0.00 0.00 0.00 33 1013.6
20260508180705 68 75 4.0 11.0 0.00 0.00 0.00 34 1013.6
20260508180202 68 125 10.0 17.0 0.00 0.00 0.00 32 1014.0
20260508175659 67 146 8.0 14.0 0.00 0.00 0.00 34 1013.8
20260508175155 67 102 6.0 9.0 0.00 0.00 0.00 37 1013.8
20260508174653 67 139 8.0 14.0 0.00 0.00 0.00 35 1014.0
20260508174144 67 102 8.0 14.0 0.00 0.00 0.00 35 1014.1